Location: Dittelbrunn
(50.0738°N, 10.2196°E)
Time: 13:21:22
(UTC+00:00)

Cosmos 1892 Rocket - Pass Details

Date: 18 September 2020
Orbit: 606 x 633 km, 82.5° (Epoch: 22 October)

Event Time Altitude Azimuth Distance (km) Brightness Sun altitude
Rises 20:14:26 0° 349° (N) 2,879 7.7 -25.9°
Reaches altitude 10° 20:16:40 10° 349° (N) 1,969 6.7 -26.2°
Enters shadow 20:20:07 56° 344° (NNW) 729 4.0 -26.6°
